DW2128 Weather Reports


Display with metric or nautical units.
time (UTC)temp
F
wind
direction
speed
MPH
gust
MPH
rain 1hr
in
rain 24hr
in
rain mn
in
humidity
%
barometer
mb
20260506205025 74 10 1.0 0.0 0.00 0.00 0.00 45 1017.2
20260506204837 74 11 1.0 0.0 0.00 0.00 0.00 45 1017.3
20260506203535 74 252 1.0 0.0 0.00 0.00 0.00 44 1017.3
20260506203340 74 13 0.0 0.0 0.00 0.00 0.00 45 1017.4
20260506202054 74 22 0.0 0.0 0.00 0.00 0.00 45 1017.4
20260506201859 74 22 0.0 0.0 0.00 0.00 0.00 44 1017.7
20260506200532 72 244 1.0 0.0 0.00 0.00 0.00 48 1017.7
20260506200401 72 242 1.0 0.0 0.00 0.00 0.00 48 1017.7
20260506195034 72 9 0.0 0.0 0.00 0.00 0.00 49 1017.7
20260506194839 71 360 0.0 0.0 0.00 0.00 0.00 48 1017.8
20260506193553 71 15 0.0 0.0 0.00 0.00 0.00 49 1017.8
20260506193337 71 15 0.0 0.0 0.00 0.00 0.00 48 1018.0
20260506192033 70 300 1.0 0.0 0.00 0.00 0.00 50 1018.0
20260506191822 70 300 1.0 0.0 0.00 0.00 0.00 51 1018.1
20260506190516 70 31 1.0 0.0 0.00 0.00 0.00 50 1018.1
20260506190323 69 38 1.0 0.0 0.00 0.00 0.00 50 1018.2
20260506185022 68 338 1.0 0.0 0.00 0.00 0.00 55 1018.2
20260506184827 67 315 1.0 0.0 0.00 0.00 0.00 54 1018.4
20260506183524 66 312 2.0 0.0 0.00 0.00 0.00 56 1018.3
20260506183334 66 29 1.0 0.0 0.00 0.00 0.00 57 1018.4
20260506182128 66 224 1.0 0.0 0.00 0.00 0.00 56 1018.4
20260506181828 67 257 1.0 0.0 0.00 0.00 0.00 56 1018.4
20260506180543 66 16 0.0 0.0 0.00 0.00 0.00 58 1018.4
20260506180327 66 16 0.0 0.0 0.00 0.00 0.00 57 1018.4
20260506175021 65 17 1.0 0.0 0.00 0.00 0.00 60 1018.4
20260506174831 64 17 1.0 0.0 0.00 0.00 0.00 60 1018.5
20260506173525 63 360 1.0 0.0 0.00 0.00 0.00 63 1018.5
20260506173330 63 360 1.0 0.0 0.00 0.00 0.00 64 1018.8
20260506172025 62 259 2.0 0.0 0.00 0.00 0.00 65 1018.8
20260506171850 62 259 2.0 0.0 0.00 0.00 0.00 64 1018.8
20260506170543 62 220 0.0 0.0 0.00 0.00 0.00 65 1018.8
20260506170330 62 254 0.0 0.0 0.00 0.00 0.00 65 1018.7
20260506165024 62 247 1.0 0.0 0.00 0.00 0.00 66 1018.7
20260506164832 62 247 1.0 0.0 0.00 0.00 0.00 66 1018.8
20260506163527 62 263 0.0 0.0 0.00 0.00 0.00 67 1018.8
20260506163331 62 344 0.0 0.0 0.00 0.00 0.00 68 1018.8
20260506162025 60 344 0.0 0.0 0.00 0.00 0.00 69 1018.7
20260506161855 60 344 0.0 0.0 0.00 0.00 0.00 69 1018.7
20260506160528 60 344 0.0 0.0 0.00 0.00 0.00 71 1018.7
20260506160333 60 344 0.0 0.0 0.00 0.00 0.00 71 1018.7
20260506155033 59 209 0.0 0.0 0.00 0.00 0.00 72 1018.6
20260506154822 59 209 0.0 0.0 0.00 0.00 0.00 72 1018.6
20260506153519 59 209 0.0 0.0 0.00 0.00 0.00 73 1018.6
20260506153323 59 207 0.0 0.0 0.00 0.00 0.00 73 1018.7
20260506152040 59 205 0.0 0.0 0.00 0.00 0.00 73 1018.7
20260506151843 59 203 0.0 0.0 0.00 0.00 0.00 73 1018.7
20260506150556 59 355 0.0 0.0 0.00 0.00 0.00 74 1018.7
20260506150324 58 355 0.0 0.0 0.00 0.00 0.00 74 1018.7
20260506145019 58 355 0.0 0.0 0.00 0.00 0.00 75 1018.7
20260506144824 58 355 0.0 0.0 0.00 0.00 0.00 75 1018.7
20260506143519 58 355 0.0 0.0 0.00 0.00 0.00 75 1018.7
20260506143347 58 355 0.0 0.0 0.00 0.00 0.00 75 1018.7
20260506142038 57 355 0.0 0.0 0.00 0.00 0.00 76 1018.7
20260506141829 57 355 0.0 0.0 0.00 0.00 0.00 76 1018.3
20260506140527 57 355 0.0 0.0 0.00 0.00 0.00 76 1018.3
20260506140332 57 355 0.0 0.0 0.00 0.00 0.00 76 1018.2
20260506135025 57 355 0.0 0.0 0.00 0.00 0.00 76 1018.2
20260506134849 56 355 0.0 0.0 0.00 0.00 0.00 76 1017.8
20260506133544 56 355 0.0 0.0 0.00 0.00 0.00 76 1017.8
20260506133348 56 355 0.0 0.0 0.00 0.00 0.00 76 1017.7
20260506132021 56 355 0.0 0.0 0.00 0.00 0.00 76 1017.7
20260506131830 56 355 0.0 0.0 0.00 0.00 0.00 76 1017.4
20260506130525 56 355 0.0 0.0 0.00 0.00 0.00 75 1017.4
20260506130331 57 355 0.0 0.0 0.00 0.00 0.00 75 1017.3
20260506125025 57 355 0.0 0.0 0.00 0.00 0.00 75 1017.3
20260506124827 57 355 0.0 0.0 0.00 0.00 0.00 75 1017.3
20260506123521 57 355 0.0 0.0 0.00 0.00 0.00 75 1017.3
20260506123332 57 355 0.0 0.0 0.00 0.00 0.00 75 1017.2
20260506122026 57 355 0.0 0.0 0.00 0.00 0.00 76 1017.2
20260506121829 57 355 0.0 0.0 0.00 0.00 0.00 76 1017.2
20260506120522 57 355 0.0 0.0 0.00 0.00 0.00 76 1017.2
20260506120331 57 355 0.0 0.0 0.00 0.00 0.00 76 1017.1
20260506115026 57 355 0.0 0.0 0.00 0.00 0.00 77 1017.1
20260506114851 57 355 0.0 0.0 0.00 0.00 0.00 77 1017.0
20260506113526 57 355 0.0 0.0 0.00 0.00 0.00 77 1017.0
20260506113330 57 355 0.0 0.0 0.00 0.00 0.00 77 1016.9
20260506112024 57 355 0.0 0.0 0.00 0.00 0.00 76 1016.9
20260506111833 57 355 0.0 0.0 0.00 0.00 0.00 76 1016.9
20260506110528 57 355 0.0 0.0 0.00 0.00 0.00 76 1016.9
20260506110333 57 355 0.0 0.0 0.00 0.00 0.00 76 1016.8
20260506105029 57 355 0.0 0.0 0.00 0.00 0.00 76 1016.8
20260506104834 57 355 0.0 0.0 0.00 0.00 0.00 76 1016.7
20260506103548 57 355 0.0 0.0 0.00 0.00 0.00 76 1016.7
20260506103336 57 355 0.0 0.0 0.00 0.00 0.00 76 1016.7
20260506102030 57 355 0.0 0.0 0.00 0.00 0.00 76 1016.7
20260506101835 57 355 0.0 0.0 0.00 0.00 0.00 76 1016.7
20260506100533 57 355 0.0 0.0 0.00 0.00 0.00 76 1016.7
20260506100358 57 355 0.0 0.0 0.00 0.00 0.00 76 1016.7
20260506095032 57 355 0.0 0.0 0.00 0.00 0.00 75 1016.7
20260506094840 57 355 0.0 0.0 0.00 0.00 0.00 75 1016.8
20260506093553 57 355 0.0 0.0 0.00 0.00 0.00 75 1016.8
20260506093337 57 355 0.0 0.0 0.00 0.00 0.00 75 1017.0
20260506092030 57 355 0.0 0.0 0.00 0.00 0.00 75 1017.0
20260506091834 57 355 0.0 0.0 0.00 0.00 0.00 75 1016.9
20260506090529 57 355 0.0 0.0 0.00 0.00 0.00 75 1016.9
20260506090338 57 355 0.0 0.0 0.00 0.00 0.00 75 1016.8
20260506085032 57 355 0.0 0.0 0.00 0.00 0.00 74 1016.8
20260506084837 57 355 0.0 0.0 0.00 0.00 0.00 74 1016.8
20260506083530 57 355 0.0 0.0 0.00 0.00 0.00 74 1016.8
20260506083340 57 355 0.0 0.0 0.00 0.00 0.00 74 1016.9
20260506082033 57 355 0.0 0.0 0.00 0.00 0.00 74 1016.9
20260506081838 57 355 0.0 0.0 0.00 0.00 0.00 74 1016.8
20260506080532 57 355 0.0 0.0 0.00 0.00 0.00 74 1016.8
20260506080337 57 355 0.0 0.0 0.00 0.00 0.00 74 1016.8
20260506073339 57 355 0.0 0.0 0.00 0.00 0.00 73 1016.7
20260506072033 58 355 0.0 0.0 0.00 0.00 0.00 73 1016.7
20260506071838 58 355 0.0 0.0 0.00 0.00 0.00 73 1016.5
20260506070535 58 355 0.0 0.0 0.00 0.00 0.00 72 1016.5
20260506070324 58 355 0.0 0.0 0.00 0.00 0.00 72 1016.3
20260506062021 58 355 0.0 0.0 0.00 0.00 0.00 72 1016.2
20260506061826 58 355 0.0 0.0 0.00 0.00 0.00 72 1016.1
20260506060520 59 355 0.0 0.0 0.00 0.00 0.00 71 1016.1
20260506060325 59 355 0.0 0.0 0.00 0.00 0.00 71 1016.0
20260506050550 59 355 0.0 0.0 0.00 0.00 0.00 68 1015.7
20260506050338 59 355 0.0 0.0 0.00 0.00 0.00 67 1015.6
20260506045031 60 355 0.0 0.0 0.00 0.00 0.00 66 1015.6
20260506044836 60 355 0.0 0.0 0.00 0.00 0.00 66 1015.4
20260506043531 60 355 0.0 0.0 0.00 0.00 0.00 66 1015.4
20260506043339 60 355 0.0 0.0 0.00 0.00 0.00 65 1015.2
20260506042032 60 355 0.0 0.0 0.00 0.00 0.00 66 1015.2
20260506041837 60 355 0.0 0.0 0.00 0.00 0.00 66 1015.1
20260506040530 60 355 0.0 0.0 0.00 0.00 0.00 66 1015.1
20260506040337 60 355 0.0 0.0 0.00 0.00 0.00 66 1014.9
20260506035051 60 355 0.0 0.0 0.00 0.00 0.00 66 1014.9
20260506034839 60 355 0.0 0.0 0.00 0.00 0.00 66 1014.6
20260506033552 60 355 0.0 0.0 0.00 0.00 0.00 66 1014.6
20260506033356 60 355 0.0 0.0 0.00 0.00 0.00 66 1014.5
20260506032029 60 355 0.0 0.0 0.00 0.00 0.00 66 1014.5
20260506031834 60 355 0.0 0.0 0.00 0.00 0.00 66 1014.2
20260506030527 60 355 0.0 0.0 0.00 0.00 0.00 66 1014.2
20260506030338 60 355 0.0 0.0 0.00 0.00 0.00 66 1014.1
20260506025033 60 355 0.0 0.0 0.00 0.00 0.00 65 1014.1
20260506024838 60 355 0.0 0.0 0.00 0.00 0.00 65 1013.9
20260506023532 61 355 0.0 0.0 0.00 0.00 0.00 65 1014.0
20260506023338 61 355 0.0 0.0 0.00 0.00 0.00 64 1013.8
20260506022032 61 355 0.0 0.0 0.00 0.00 0.00 64 1013.8
20260506021840 61 355 0.0 0.0 0.00 0.00 0.00 64 1013.8
20260506020533 61 247 0.0 0.0 0.00 0.00 0.00 64 1013.8
20260506020319 61 247 0.0 0.0 0.00 0.00 0.00 64 1013.9
20260506015035 62 247 0.0 0.0 0.00 0.00 0.00 62 1014.0
20260506014828 62 243 0.0 0.0 0.00 0.00 0.00 62 1014.0
20260506013522 62 243 0.0 0.0 0.00 0.00 0.00 62 1014.0
20260506013346 62 243 0.0 0.0 0.00 0.00 0.00 62 1013.9
20260506012025 62 243 0.0 0.0 0.00 0.00 0.00 62 1013.9
20260506011830 62 243 0.0 0.0 0.00 0.00 0.00 62 1013.8
20260506010524 62 243 0.0 0.0 0.00 0.00 0.00 61 1013.8
20260506010333 62 243 0.0 0.0 0.00 0.00 0.00 62 1013.8
20260506005027 62 243 0.0 0.0 0.00 0.00 0.00 62 1013.8
20260506004832 62 243 0.0 0.0 0.00 0.00 0.00 62 1013.8
20260506003526 62 243 0.0 0.0 0.00 0.00 0.00 61 1013.8
20260506003330 62 243 0.0 0.0 0.00 0.00 0.00 61 1013.6
20260506002023 62 242 0.0 0.0 0.00 0.00 0.00 61 1013.6
20260506001834 62 242 0.0 0.0 0.00 0.00 0.00 61 1013.6
20260506000528 62 244 0.0 0.0 0.00 0.00 0.00 60 1013.6
20260506000333 62 244 0.0 0.0 0.00 0.00 0.00 61 1013.5
20260505235028 62 244 0.0 0.0 0.00 0.00 0.00 62 1013.5
20260505234837 62 244 0.0 0.0 0.00 0.00 0.00 62 1013.6
20260505233530 62 360 0.0 0.0 0.00 0.00 0.00 61 1013.6
20260505233337 62 360 0.0 0.0 0.00 0.00 0.00 61 1013.6
20260505232034 62 355 0.0 0.0 0.00 0.00 0.00 61 1013.6
20260505231837 62 355 0.0 0.0 0.00 0.00 0.00 62 1013.6
20260505230530 62 355 0.0 0.0 0.00 0.00 0.00 61 1013.6
20260505230338 62 355 0.0 0.0 0.00 0.00 0.00 62 1013.6
20260505225036 62 288 0.0 0.0 0.00 0.00 0.00 61 1013.6
20260505224840 62 288 0.0 0.0 0.00 0.00 0.00 61 1013.7
20260505223535 62 288 1.0 0.0 0.00 0.00 0.00 59 1013.7
20260505223359 63 288 1.0 0.0 0.00 0.00 0.00 58 1013.8
20260505222052 62 256 0.0 0.0 0.00 0.00 0.00 62 1013.8
20260505221840 62 255 1.0 0.0 0.00 0.00 0.00 62 1013.9
20260505220534 62 193 1.0 0.0 0.00 0.00 0.00 61 1013.9
20260505220359 62 193 1.0 0.0 0.00 0.00 0.00 60 1014.0
20260505215031 62 184 0.0 0.0 0.00 0.00 0.00 62 1014.0
20260505214837 62 184 0.0 0.0 0.00 0.00 0.00 62 1014.1
20260505213531 61 185 0.0 0.0 0.00 0.00 0.00 63 1014.1
20260505213341 61 185 0.0 0.0 0.00 0.00 0.00 63 1014.2
20260505212055 60 185 0.0 0.0 0.00 0.00 0.00 62 1014.2
20260505211838 60 185 0.0 0.0 0.00 0.00 0.00 62 1014.1
20260505210533 60 185 0.0 0.0 0.00 0.00 0.00 62 1014.1
20260505210337 60 185 0.0 0.0 0.00 0.00 0.00 62 1014.1